Location: Erlenbrunn
(49.1717°N, 7.6142°E)
Time: 13:04:53
(UTC+00:00)

Feng Yun 1-1 Rocket - Pass Details

Date: 25 November 2020
Orbit: 830 x 933 km, 99.2° (Epoch: 25 January)

Event Time Altitude Azimuth Distance (km) Brightness Sun altitude
Rises 17:06:28 0° 155° (SSE) 3,544 7.3 -14.1°
Reaches altitude 10° 17:08:54 10° 153° (SSE) 2,594 6.6 -14.4°
Maximum altitude 17:14:39 71° 70° (ENE) 949 4.2 -15.3°
Drops below altitude 10° 17:20:17 10° 348° (NNW) 2,544 6.7 -16.2°
Sets 17:22:39 0° 347° (NNW) 3,471 7.4 -16.6°
